Morrisville, VT

11:20 PM EST on November 19, 2019 (GMT -0500)
Morrisville Stowe State

Weather History for KMVL - September, 2019

Change the Weather History Date:

Monday, September 9, 2019

  Actual Average Record
Temperature  
Mean Temperature 53 °F 60 °F  
Max Temperature 64 °F 73 °F 95 °F (2002)
Min Temperature 41 °F 48 °F 31 °F (2018)
Degree Days  
Heating Degree Days 12 6  
Month to date heating degree days 52 42  
Since 1 July heating degree days 117 137  
Cooling Degree Days 0 1  
Month to date cooling degree days 1 9  
Year to date cooling degree days 244 256  
Growing Degree Days 3 (Base 50)    
Moisture  
Dew Point 44 °F    
Average Humidity 86    
Maximum Humidity 100    
Minimum Humidity 48    
Precipitation  
Precipitation 0.00 in 0.11 in 0.56 in (2008)
Month to date precipitation 1.89 0.87  
Year to date precipitation 29.12 24.63  
Sea Level Pressure  
Sea Level Pressure 30.30 in    
Wind  
Wind Speed 1 mph ()    
Max Wind Speed 10 mph    
Max Gust Speed 14 mph    
Visibility 6.7 miles    
Events Fog    
T = Trace of Precipitation, MM = Missing Value Source: Averaged Metar Reports

Daily Weather History Graph

Daily Weather History Graph

Search for Another Location

Airport or City:

Astronomy

Sep. 09, 2019 Rise Set
Actual Time 6:22 AM EDT 7:12 PM EDT
Civil Twilight 5:52 AM EDT 7:42 PM EDT
Nautical Twilight 5:17 AM EDT 8:17 PM EDT
Astronomical Twilight 4:40 AM EDT 8:53 PM EDT
Moon 5:17 PM EDT (9/9) 1:39 AM EDT (9/9)
Length of Visible Light 13h 49m
Length of Day
12h 50m
Waxing Gibbous, 83% of the Moon is Illuminated
Sep 9
Waxing Gibbous
Sep 14
Full
Sep 21
Last Quarter
Sep 28
New
Oct 5
First Quarter

Hourly Weather History & Observations

Time (EDT) Temp. Windchill Dew Point Humidity Pressure Visibility Wind Dir Wind Speed Gust Speed Precip Events Conditions
12:54 AM 51.1 °F - 48.9 °F 92% 30.23 in 10.0 mi Calm Calm - N/A   Mostly Cloudy
1:54 AM 48.9 °F - 48.0 °F 97% 30.24 in 10.0 mi Calm Calm - N/A   Mostly Cloudy
2:23 AM 48.0 °F - 46.0 °F 93% 30.22 in 10.0 mi Calm Calm - N/A   Partly Cloudy
2:54 AM 46.9 °F - 45.0 °F 93% 30.23 in 10.0 mi Calm Calm - N/A   Partly Cloudy
3:14 AM 44.1 °F 42.5 °F 44.1 °F 100% 30.22 in 1.8 mi South 3.5 mph - N/A   Clear
3:23 AM 45.0 °F 42.6 °F 44.1 °F 97% 30.23 in 3.0 mi SSW 4.6 mph - N/A   Clear
3:54 AM 45.0 °F - 43.0 °F 93% 30.25 in 8.0 mi Calm Calm - N/A   Clear
4:15 AM 44.1 °F - 43.0 °F 96% 30.23 in 5.0 mi Calm Calm - N/A   Scattered Clouds
4:19 AM 44.1 °F - 43.0 °F 96% 30.23 in 1.8 mi Calm Calm - N/A   Mostly Cloudy
4:23 AM 43.0 °F - 42.1 °F 97% 30.23 in 0.8 mi Calm Calm - N/A   Mist
4:54 AM 44.1 °F - 44.1 °F 100% 30.26 in 0.5 mi Calm Calm - N/A Fog Fog
5:29 AM 43.0 °F - 41.0 °F 93% 30.26 in 1.0 mi Calm Calm - N/A   Mist
5:38 AM 42.1 °F 40.2 °F 41.0 °F 96% 30.26 in 0.8 mi SSW 3.5 mph - N/A   Mist
5:54 AM 42.1 °F - 42.1 °F 100% 30.29 in 0.8 mi Calm Calm - N/A   Mist
6:09 AM 42.1 °F - 42.1 °F 100% 30.28 in 1.2 mi Calm Calm - N/A   Overcast
6:14 AM 42.1 °F - 41.0 °F 96% 30.28 in 3.0 mi Calm Calm - N/A   Overcast
6:34 AM 42.1 °F - 41.0 °F 96% 30.29 in 1.8 mi Calm Calm - N/A   Overcast
6:37 AM 42.1 °F - 41.0 °F 96% 30.29 in 0.8 mi Calm Calm - N/A   Overcast
6:54 AM 42.1 °F 40.2 °F 41.0 °F 96% 30.31 in 0.5 mi SSW 3.5 mph - N/A Fog Fog
7:29 AM 43.0 °F - 42.1 °F 97% 30.30 in 1.2 mi Calm Calm - N/A   Mostly Cloudy
7:31 AM 43.0 °F 41.3 °F 42.1 °F 97% 30.30 in 2.0 mi SW 3.5 mph - N/A   Mostly Cloudy
7:38 AM 43.0 °F - 42.1 °F 97% 30.31 in 10.0 mi Calm Calm - N/A   Mostly Cloudy
7:54 AM 44.1 °F - 43.0 °F 96% 30.33 in 10.0 mi Calm Calm - N/A   Mostly Cloudy
8:54 AM 48.9 °F - 48.0 °F 97% 30.35 in 10.0 mi Calm Calm - N/A   Mostly Cloudy
9:54 AM 54.0 °F - 48.9 °F 83% 30.36 in 10.0 mi NE 4.6 mph - N/A   Overcast
10:17 AM 55.9 °F - 46.9 °F 72% 30.35 in 10.0 mi NE 8.1 mph - N/A   Mostly Cloudy
10:54 AM 57.9 °F - 46.9 °F 67% 30.36 in 10.0 mi NNE 5.8 mph - N/A   Mostly Cloudy
11:54 AM 61.0 °F - 45.0 °F 56% 30.34 in 10.0 mi North 5.8 mph - N/A   Mostly Cloudy
12:54 PM 61.0 °F - 44.1 °F 54% 30.32 in 10.0 mi North 5.8 mph - N/A   Mostly Cloudy
1:54 PM 63.0 °F - 45.0 °F 52% 30.32 in 10.0 mi NNE 6.9 mph - N/A   Mostly Cloudy
2:54 PM 64.0 °F - 44.1 °F 48% 30.31 in 10.0 mi NNE 4.6 mph - N/A   Mostly Cloudy
3:54 PM 63.0 °F - 45.0 °F 52% 30.30 in 10.0 mi ENE 4.6 mph - N/A   Mostly Cloudy
4:54 PM 64.9 °F - 45.0 °F 48% 30.31 in 10.0 mi North 6.9 mph - N/A   Partly Cloudy
5:54 PM 63.0 °F - 46.0 °F 54% 30.30 in 10.0 mi NNW 4.6 mph - N/A   Clear
6:54 PM 55.0 °F - 46.9 °F 74% 30.32 in 10.0 mi NNW 3.5 mph - N/A   Clear
7:54 PM 48.9 °F - 46.0 °F 90% 30.35 in 10.0 mi Calm Calm - N/A   Clear
8:54 PM 46.0 °F - 44.1 °F 93% 30.37 in 10.0 mi Calm Calm - N/A   Clear
9:54 PM 45.0 °F 43.5 °F 43.0 °F 93% 30.39 in 10.0 mi SSW 3.5 mph - N/A   Clear
10:54 PM 43.0 °F - 42.1 °F 97% 30.39 in 10.0 mi Calm Calm - N/A   Clear
11:46 PM 43.0 °F - 41.0 °F 93% 30.37 in 10.0 mi Calm Calm - N/A   Scattered Clouds
11:54 PM 43.0 °F - 41.0 °F 93% 30.39 in 10.0 mi Calm Calm - N/A   Partly Cloudy